Location: *
(33.8649°S, 62.1526°E)
Time: 13:05:37
(UTC+00:00)

USA 186 - Pass Details

Date: 17 January 2021
Orbit: 260 x 440 km, 96.9° (Epoch: 01 March)

Event Time Altitude Azimuth Distance (km) Brightness Sun altitude
Rises 16:26:54 0° 177° (S) 2,385 6.1 -15.3°
Reaches altitude 10° 16:28:56 10° 184° (S) 1,538 5.2 -15.6°
Maximum altitude 16:32:05 43° 256° (WSW) 630 3.1 -16.2°
Drops below altitude 10° 16:35:20 10° 329° (NNW) 1,572 4.6 -16.7°
Enters shadow 16:37:02 - 334° (NNW) 2,276 5.3 -16.9°
